TimeMST,TemperatureF,Dew PointF,Humidity,Sea Level PressureIn,VisibilityMPH,Wind Direction,Wind SpeedMPH,Gust SpeedMPH,PrecipitationIn,Events,Conditions,WindDirDegrees,DateUTC
12:23 AM,28.4,19.4,69,30.41,10.0,WSW,16.1,-,N/A,,Overcast,250,2013-03-01 07:23:00
12:36 AM,28.4,19.4,69,30.42,10.0,WSW,12.7,-,N/A,,Overcast,250,2013-03-01 07:36:00
12:53 AM,28.0,18.0,66,30.47,10.0,WSW,12.7,-,N/A,,Overcast,240,2013-03-01 07:53:00
1:53 AM,28.0,19.0,69,30.48,10.0,SW,11.5,-,N/A,,Overcast,220,2013-03-01 08:53:00
2:53 AM,28.9,19.0,67,30.46,10.0,SW,17.3,-,N/A,,Overcast,230,2013-03-01 09:53:00
3:53 AM,28.0,19.9,72,30.48,10.0,SW,9.2,-,N/A,,Overcast,220,2013-03-01 10:53:00
5:53 AM,28.9,21.9,75,30.51,10.0,WSW,13.8,-,N/A,,Overcast,240,2013-03-01 12:53:00
6:53 AM,28.9,21.0,72,30.53,10.0,WSW,6.9,-,N/A,,Overcast,240,2013-03-01 13:53:00
7:53 AM,28.9,21.9,75,30.53,10.0,SW,8.1,-,N/A,,Overcast,230,2013-03-01 14:53:00
8:53 AM,30.9,24.1,76,30.55,10.0,SW,10.4,-,N/A,,Overcast,230,2013-03-01 15:53:00
9:53 AM,32.0,25.0,75,30.56,10.0,WSW,11.5,-,N/A,,Overcast,240,2013-03-01 16:53:00
10:53 AM,35.1,27.0,72,30.53,10.0,SW,12.7,-,N/A,,Overcast,220,2013-03-01 17:53:00
11:53 AM,35.1,27.0,72,30.53,10.0,SW,15.0,-,N/A,,Overcast,230,2013-03-01 18:53:00
12:53 PM,36.0,27.0,70,30.50,10.0,SW,12.7,-,N/A,,Overcast,220,2013-03-01 19:53:00
1:53 PM,37.9,28.0,68,30.47,10.0,SW,10.4,-,N/A,,Overcast,220,2013-03-01 20:53:00
2:11 PM,37.4,26.6,65,30.46,10.0,WSW,11.5,-,N/A,,Mostly Cloudy,250,2013-03-01 21:11:00
3:53 PM,37.9,27.0,65,30.49,10.0,West,15.0,-,N/A,,Mostly Cloudy,270,2013-03-01 22:53:00
4:53 PM,36.0,26.1,67,30.51,10.0,West,13.8,-,N/A,,Partly Cloudy,270,2013-03-01 23:53:00
5:53 PM,34.0,27.0,75,30.51,10.0,WSW,10.4,-,N/A,,Clear,250,2013-03-02 00:53:00
6:53 PM,32.0,25.0,75,30.52,10.0,West,6.9,-,N/A,,Clear,280,2013-03-02 01:53:00
7:53 PM,30.9,24.1,76,30.53,10.0,West,9.2,-,N/A,,Clear,280,2013-03-02 02:53:00
8:53 PM,30.0,23.0,75,30.52,10.0,West,11.5,-,N/A,,Clear,270,2013-03-02 03:53:00
9:53 PM,28.0,23.0,81,30.54,10.0,South,5.8,-,N/A,,Clear,190,2013-03-02 04:53:00
10:53 PM,28.9,21.9,75,30.51,10.0,SW,4.6,-,N/A,,Clear,230,2013-03-02 05:53:00
11:53 PM,26.1,21.0,81,30.52,10.0,WSW,9.2,-,N/A,,Clear,250,2013-03-02 06:53:00